YAOGAN-10

Last updated on Mon Oct 14 2024 00:02:24 GMT+0000 (Coordinated Universal Time)

1 36834U 10038A 24287.55090418 .00002555 00000+0 31825-3 0 9999 2 36834 97.9454 304.0345 0001425 86.1650 65.4009 14.83348485766473
UTC large
Height (km)
Speed (km/s)
/
Latitude / Longitude
Inclination (degrees)
Orbital Period (minutes)
Azimuth
Elevation
Range (km)
Doppler Factor

Next 0 passes for location: London (51.5072 / 0.1276)

Sorry there are no passes over London.